| time (UTC) | temp F | wind direction | speed knots | gust knots | rain 1hr in | rain 24hr in | rain mn in | humidity % | barometer mb |
| 20260510122747 | 73 | 217 | 0.0 | 0.0 | 0.00 | 0.00 | 0.00 | 99 | 1016.1 |
| 20260510122244 | 73 | 256 | 0.0 | 0.9 | 0.00 | 0.00 | 0.00 | 99 | 1016.4 |
| 20260510121740 | 73 | 248 | 0.0 | 0.9 | 0.00 | 0.00 | 0.00 | 99 | 1016.3 |
| 20260510121238 | 72 | 242 | 0.0 | 0.0 | 0.00 | 0.00 | 0.00 | 99 | 1016.3 |
| 20260510120735 | 72 | 217 | 0.0 | 0.0 | 0.00 | 0.00 | 0.00 | 99 | 1016.1 |
| 20260510120232 | 72 | 217 | 0.0 | 0.0 | 0.00 | 0.00 | 0.00 | 99 | 1016.1 |
| 20260510115727 | 71 | 217 | 0.0 | 0.0 | 0.00 | 0.00 | 0.00 | 99 | 1016.1 |
| 20260510115226 | 71 | 217 | 0.0 | 0.0 | 0.00 | 0.00 | 0.00 | 99 | 1015.7 |
| 20260510114721 | 71 | 217 | 0.0 | 0.0 | 0.00 | 0.00 | 0.00 | 99 | 1015.9 |
| 20260510114218 | 71 | 217 | 0.0 | 0.0 | 0.00 | 0.00 | 0.00 | 99 | 1016.0 |
| 20260510113713 | 70 | 217 | 0.0 | 0.0 | 0.00 | 0.00 | 0.00 | 99 | 1015.7 |
| 20260510113210 | 70 | 217 | 0.0 | 0.0 | 0.00 | 0.00 | 0.00 | 99 | 1015.7 |
| 20260510112706 | 70 | 217 | 0.0 | 0.0 | 0.00 | 0.00 | 0.00 | 99 | 1015.7 |
| 20260510112204 | 70 | 217 | 0.0 | 0.0 | 0.00 | 0.00 | 0.00 | 99 | 1015.8 |
| 20260510111700 | 70 | 343 | 0.0 | 0.0 | 0.00 | 0.00 | 0.00 | 99 | 1015.3 |
| 20260510111157 | 70 | 343 | 0.0 | 0.0 | 0.00 | 0.00 | 0.00 | 99 | 1015.6 |
| 20260510110656 | 70 | 343 | 0.0 | 0.0 | 0.00 | 0.00 | 0.00 | 99 | 1015.6 |
| 20260510110154 | 70 | 343 | 0.0 | 0.0 | 0.00 | 0.00 | 0.00 | 99 | 1015.6 |
| 20260510105649 | 70 | 343 | 0.0 | 0.0 | 0.00 | 0.00 | 0.00 | 99 | 1015.3 |
| 20260510105149 | 70 | 343 | 0.0 | 0.0 | 0.00 | 0.00 | 0.00 | 99 | 1015.4 |
| 20260510104647 | 70 | 343 | 0.0 | 0.0 | 0.00 | 0.00 | 0.00 | 99 | 1015.3 |
| 20260510104143 | 70 | 343 | 0.0 | 0.0 | 0.00 | 0.00 | 0.00 | 99 | 1015.3 |
| 20260510103640 | 70 | 343 | 0.0 | 0.0 | 0.00 | 0.00 | 0.00 | 99 | 1015.3 |
| 20260510103137 | 70 | 343 | 0.0 | 0.0 | 0.00 | 0.00 | 0.00 | 99 | 1015.0 |
| 20260510102632 | 70 | 343 | 0.0 | 0.0 | 0.00 | 0.00 | 0.00 | 99 | 1015.3 |
| 20260510102128 | 70 | 330 | 0.0 | 0.0 | 0.00 | 0.00 | 0.00 | 99 | 1015.2 |
| 20260510101626 | 70 | 322 | 0.0 | 0.0 | 0.00 | 0.00 | 0.00 | 99 | 1015.1 |
| 20260510101124 | 70 | 307 | 0.0 | 0.0 | 0.00 | 0.00 | 0.00 | 99 | 1015.1 |
| 20260510100620 | 70 | 218 | 0.0 | 0.0 | 0.00 | 0.00 | 0.00 | 99 | 1015.0 |
| 20260510100117 | 70 | 218 | 0.0 | 0.0 | 0.00 | 0.00 | 0.00 | 99 | 1014.7 |
| 20260510095613 | 70 | 218 | 0.0 | 0.0 | 0.00 | 0.00 | 0.00 | 99 | 1014.6 |
| 20260510095113 | 70 | 218 | 0.0 | 0.0 | 0.00 | 0.00 | 0.00 | 99 | 1014.5 |
| 20260510094612 | 70 | 218 | 0.0 | 0.0 | 0.00 | 0.00 | 0.00 | 99 | 1014.7 |
| 20260510094108 | 70 | 218 | 0.0 | 0.0 | 0.00 | 0.00 | 0.00 | 99 | 1014.7 |
| 20260510093604 | 70 | 218 | 0.0 | 0.0 | 0.00 | 0.00 | 0.00 | 99 | 1014.7 |
| 20260510093101 | 70 | 218 | 0.0 | 0.9 | 0.00 | 0.00 | 0.00 | 99 | 1014.6 |
| 20260510092558 | 70 | 269 | 0.0 | 0.0 | 0.00 | 0.00 | 0.00 | 99 | 1014.5 |
| 20260510092057 | 70 | 230 | 0.0 | 0.0 | 0.00 | 0.00 | 0.00 | 99 | 1014.4 |
| 20260510091555 | 70 | 310 | 0.0 | 0.9 | 0.00 | 0.00 | 0.00 | 99 | 1014.1 |
| 20260510091051 | 70 | 230 | 0.0 | 0.0 | 0.00 | 0.00 | 0.00 | 99 | 1014.3 |
| 20260510090548 | 70 | 230 | 0.0 | 0.0 | 0.00 | 0.00 | 0.00 | 99 | 1014.2 |
| 20260510090043 | 70 | 230 | 0.0 | 0.0 | 0.00 | 0.00 | 0.00 | 99 | 1014.2 |
| 20260510085538 | 70 | 230 | 0.0 | 0.0 | 0.00 | 0.00 | 0.00 | 99 | 1014.4 |
| 20260510085035 | 70 | 230 | 0.0 | 0.0 | 0.00 | 0.00 | 0.00 | 99 | 1013.9 |
| 20260510084531 | 70 | 230 | 0.0 | 0.0 | 0.00 | 0.00 | 0.00 | 99 | 1014.2 |
| 20260510084028 | 70 | 230 | 0.0 | 0.0 | 0.00 | 0.00 | 0.00 | 99 | 1014.2 |
| 20260510083525 | 70 | 246 | 0.0 | 0.0 | 0.00 | 0.00 | 0.00 | 99 | 1014.2 |
| 20260510083021 | 70 | 322 | 0.0 | 0.0 | 0.00 | 0.00 | 0.00 | 99 | 1014.0 |
| 20260510082518 | 70 | 322 | 0.0 | 0.0 | 0.00 | 0.00 | 0.00 | 99 | 1014.3 |
| 20260510082019 | 70 | 322 | 0.0 | 0.0 | 0.00 | 0.00 | 0.00 | 99 | 1014.1 |
| 20260510081514 | 70 | 309 | 0.0 | 0.0 | 0.00 | 0.00 | 0.00 | 99 | 1014.1 |
| 20260510081010 | 70 | 230 | 0.0 | 0.0 | 0.00 | 0.00 | 0.00 | 99 | 1013.9 |
| 20260510080509 | 70 | 230 | 0.0 | 0.0 | 0.00 | 0.00 | 0.00 | 99 | 1013.9 |
| 20260510080006 | 70 | 230 | 0.0 | 0.0 | 0.00 | 0.00 | 0.00 | 99 | 1013.9 |
| 20260510075503 | 70 | 230 | 0.0 | 0.0 | 0.00 | 0.00 | 0.00 | 99 | 1013.9 |
| 20260510075000 | 70 | 230 | 0.0 | 0.0 | 0.00 | 0.00 | 0.00 | 99 | 1013.9 |
| 20260510074458 | 70 | 230 | 0.0 | 0.0 | 0.00 | 0.00 | 0.00 | 99 | 1013.5 |
| 20260510073953 | 70 | 230 | 0.0 | 0.0 | 0.00 | 0.00 | 0.00 | 99 | 1013.8 |
| 20260510073449 | 70 | 244 | 0.0 | 0.0 | 0.00 | 0.00 | 0.00 | 99 | 1013.8 |
| 20260510072946 | 70 | 322 | 0.0 | 0.0 | 0.00 | 0.00 | 0.00 | 99 | 1013.3 |
| 20260510072443 | 71 | 322 | 0.0 | 0.0 | 0.00 | 0.00 | 0.00 | 99 | 1013.4 |
| 20260510071938 | 71 | 322 | 0.0 | 0.0 | 0.00 | 0.00 | 0.00 | 99 | 1013.7 |
| 20260510071435 | 71 | 322 | 0.0 | 0.0 | 0.00 | 0.00 | 0.00 | 99 | 1013.7 |
| 20260510070933 | 71 | 322 | 0.0 | 0.0 | 0.00 | 0.00 | 0.00 | 99 | 1013.5 |
| 20260510070430 | 71 | 322 | 0.0 | 0.0 | 0.00 | 0.00 | 0.00 | 99 | 1013.5 |
| 20260510065925 | 71 | 217 | 0.0 | 0.0 | 0.00 | 0.00 | 0.00 | 99 | 1013.8 |
| 20260510065422 | 71 | 217 | 0.0 | 0.0 | 0.00 | 0.00 | 0.00 | 99 | 1013.6 |
| 20260510064918 | 71 | 217 | 0.0 | 0.0 | 0.00 | 0.00 | 0.00 | 99 | 1013.8 |
| 20260510064416 | 71 | 217 | 0.0 | 0.0 | 0.00 | 0.00 | 0.00 | 99 | 1014.0 |
| 20260510063913 | 71 | 142 | 0.0 | 0.0 | 0.00 | 0.00 | 0.00 | 99 | 1013.9 |
| 20260510063409 | 71 | 142 | 0.0 | 0.0 | 0.00 | 0.00 | 0.00 | 99 | 1014.1 |
| 20260510062907 | 71 | 49 | 0.0 | 0.0 | 0.00 | 0.00 | 0.00 | 99 | 1014.1 |
| 20260510062401 | 71 | 310 | 0.0 | 0.0 | 0.00 | 0.00 | 0.00 | 99 | 1014.2 |
| 20260510061857 | 71 | 230 | 0.0 | 0.0 | 0.00 | 0.00 | 0.00 | 99 | 1014.0 |
| 20260510061354 | 71 | 230 | 0.0 | 0.0 | 0.00 | 0.00 | 0.00 | 99 | 1014.4 |
| 20260510060850 | 71 | 230 | 0.0 | 0.0 | 0.00 | 0.00 | 0.00 | 99 | 1014.4 |
| 20260510060347 | 71 | 230 | 0.0 | 0.9 | 0.00 | 0.00 | 0.00 | 99 | 1014.7 |
| 20260510055844 | 71 | 269 | 0.0 | 0.0 | 0.00 | 0.00 | 0.00 | 99 | 1014.6 |
| 20260510055343 | 71 | 304 | 0.0 | 0.0 | 0.00 | 0.00 | 0.00 | 99 | 1014.7 |
| 20260510054842 | 71 | 230 | 0.0 | 0.0 | 0.00 | 0.00 | 0.00 | 99 | 1014.8 |
| 20260510054338 | 71 | 230 | 0.0 | 0.0 | 0.00 | 0.00 | 0.00 | 99 | 1014.9 |
| 20260510053833 | 71 | 230 | 0.0 | 0.0 | 0.00 | 0.00 | 0.00 | 99 | 1014.9 |
| 20260510053329 | 71 | 230 | 0.0 | 0.0 | 0.00 | 0.00 | 0.00 | 99 | 1014.9 |
| 20260510052825 | 71 | 230 | 0.0 | 0.0 | 0.00 | 0.00 | 0.00 | 99 | 1015.1 |
| 20260510052321 | 71 | 242 | 0.0 | 0.0 | 0.00 | 0.00 | 0.00 | 99 | 1015.0 |
| 20260510051818 | 71 | 235 | 0.0 | 0.0 | 0.00 | 0.00 | 0.00 | 99 | 1015.1 |
| 20260510051314 | 71 | 235 | 0.0 | 0.0 | 0.00 | 0.00 | 0.00 | 99 | 1015.3 |
| 20260510050812 | 71 | 230 | 0.0 | 0.0 | 0.00 | 0.00 | 0.00 | 99 | 1015.4 |
| 20260510050308 | 71 | 230 | 0.0 | 0.0 | 0.00 | 0.00 | 0.00 | 99 | 1015.5 |
| 20260510045805 | 71 | 230 | 0.0 | 0.0 | 0.00 | 0.00 | 0.00 | 99 | 1015.6 |
| 20260510045305 | 71 | 242 | 0.0 | 0.0 | 0.00 | 0.00 | 0.00 | 98 | 1015.4 |
| 20260510044759 | 71 | 242 | 0.0 | 0.0 | 0.00 | 0.00 | 0.00 | 98 | 1015.4 |
| 20260510044256 | 71 | 242 | 0.0 | 0.0 | 0.00 | 0.00 | 0.00 | 98 | 1015.2 |
| 20260510043752 | 71 | 242 | 0.0 | 0.0 | 0.00 | 0.00 | 0.00 | 98 | 1015.4 |
| 20260510043248 | 71 | 217 | 0.0 | 0.0 | 0.00 | 0.00 | 0.00 | 98 | 1015.4 |
| 20260510042746 | 71 | 242 | 0.0 | 0.0 | 0.00 | 0.00 | 0.00 | 98 | 1015.7 |
| 20260510042241 | 71 | 242 | 0.0 | 0.0 | 0.00 | 0.00 | 0.00 | 98 | 1015.5 |
| 20260510041738 | 71 | 225 | 0.0 | 0.0 | 0.00 | 0.00 | 0.00 | 98 | 1015.6 |
| 20260510041236 | 71 | 230 | 0.0 | 0.0 | 0.00 | 0.00 | 0.00 | 98 | 1015.5 |
| 20260510040733 | 72 | 37 | 0.0 | 0.0 | 0.00 | 0.00 | 0.00 | 98 | 1015.3 |
| 20260510040230 | 72 | 37 | 0.0 | 0.0 | 0.00 | 0.00 | 0.00 | 98 | 1015.4 |
| 20260510035725 | 72 | 309 | 0.0 | 0.0 | 0.00 | 0.25 | 0.25 | 98 | 1015.3 |
| 20260510035221 | 72 | 37 | 0.0 | 0.0 | 0.00 | 0.25 | 0.25 | 98 | 1015.4 |
| 20260510034717 | 72 | 245 | 0.0 | 0.9 | 0.00 | 0.25 | 0.25 | 98 | 1015.7 |
| 20260510034215 | 72 | 309 | 0.0 | 0.0 | 0.00 | 0.25 | 0.25 | 98 | 1015.3 |
| 20260510033711 | 72 | 309 | 0.0 | 0.0 | 0.00 | 0.25 | 0.25 | 98 | 1015.4 |
| 20260510033209 | 72 | 309 | 0.0 | 0.0 | 0.00 | 0.25 | 0.25 | 98 | 1015.4 |
| 20260510032705 | 72 | 11 | 0.0 | 0.0 | 0.00 | 0.25 | 0.25 | 98 | 1015.6 |
| 20260510032201 | 72 | 240 | 0.0 | 0.0 | 0.00 | 0.25 | 0.25 | 98 | 1015.4 |
| 20260510031655 | 72 | 309 | 0.0 | 0.0 | 0.00 | 0.25 | 0.25 | 98 | 1015.6 |
| 20260510031153 | 72 | 315 | 0.0 | 0.0 | 0.00 | 0.25 | 0.25 | 98 | 1015.6 |
| 20260510030652 | 72 | 269 | 0.0 | 0.9 | 0.00 | 0.25 | 0.25 | 98 | 1015.6 |
| 20260510030150 | 72 | 246 | 0.0 | 0.0 | 0.00 | 0.25 | 0.25 | 98 | 1015.5 |
| 20260510025647 | 72 | 237 | 0.0 | 0.0 | 0.00 | 0.25 | 0.25 | 98 | 1015.4 |
| 20260510025144 | 72 | 249 | 0.9 | 1.7 | 0.00 | 0.25 | 0.25 | 98 | 1015.3 |
| 20260510024641 | 72 | 269 | 0.0 | 0.0 | 0.00 | 0.25 | 0.25 | 98 | 1015.2 |
| 20260510024138 | 72 | 273 | 0.9 | 0.9 | 0.00 | 0.25 | 0.25 | 98 | 1015.1 |
| 20260510023633 | 72 | 322 | 0.0 | 0.0 | 0.00 | 0.25 | 0.25 | 98 | 1015.1 |
| 20260510023131 | 72 | 343 | 0.0 | 0.0 | 0.00 | 0.25 | 0.25 | 98 | 1014.8 |
| 20260510022631 | 72 | 343 | 0.0 | 0.0 | 0.00 | 0.25 | 0.25 | 98 | 1014.9 |
| 20260510022126 | 72 | 330 | 0.0 | 0.9 | 0.00 | 0.25 | 0.25 | 98 | 1015.2 |
| 20260510021622 | 72 | 286 | 0.0 | 1.7 | 0.00 | 0.25 | 0.25 | 98 | 1015.0 |
| 20260510021120 | 72 | 44 | 0.0 | 0.0 | 0.00 | 0.25 | 0.25 | 98 | 1014.6 |
| 20260510020619 | 72 | 44 | 0.0 | 0.0 | 0.00 | 0.25 | 0.25 | 98 | 1014.6 |
| 20260510020115 | 72 | 44 | 0.0 | 0.0 | 0.00 | 0.25 | 0.25 | 98 | 1014.5 |
| 20260510015612 | 72 | 32 | 0.0 | 0.0 | 0.00 | 0.25 | 0.25 | 98 | 1014.4 |
| 20260510015108 | 72 | 13 | 0.0 | 0.0 | 0.00 | 0.25 | 0.25 | 98 | 1014.4 |
| 20260510014603 | 72 | 256 | 0.0 | 0.0 | 0.00 | 0.25 | 0.25 | 98 | 1014.4 |
| 20260510014102 | 72 | 256 | 0.0 | 0.0 | 0.00 | 0.25 | 0.25 | 98 | 1014.5 |
| 20260510013556 | 72 | 44 | 0.0 | 0.9 | 0.00 | 0.25 | 0.25 | 98 | 1014.1 |
| 20260510013052 | 72 | 202 | 0.0 | 0.0 | 0.00 | 0.25 | 0.25 | 98 | 1014.7 |
| 20260510012551 | 72 | 322 | 0.0 | 0.0 | 0.00 | 0.25 | 0.25 | 98 | 1014.1 |
| 20260510012048 | 72 | 246 | 0.0 | 0.0 | 0.00 | 0.25 | 0.25 | 98 | 1014.1 |
| 20260510011547 | 72 | 246 | 0.0 | 0.0 | 0.00 | 0.25 | 0.25 | 98 | 1014.0 |
| 20260510011044 | 72 | 217 | 0.0 | 0.0 | 0.00 | 0.25 | 0.25 | 98 | 1014.0 |
| 20260510010540 | 72 | 32 | 0.0 | 0.0 | 0.00 | 0.25 | 0.25 | 98 | 1014.1 |
| 20260510010037 | 72 | 336 | 0.0 | 0.0 | 0.00 | 0.25 | 0.25 | 98 | 1013.9 |
| 20260510005533 | 72 | 124 | 0.0 | 0.0 | 0.00 | 0.25 | 0.25 | 98 | 1013.8 |
| 20260510005031 | 72 | 129 | 0.0 | 0.0 | 0.00 | 0.25 | 0.25 | 98 | 1014.0 |
| 20260510004528 | 72 | 315 | 0.0 | 0.0 | 0.00 | 0.25 | 0.25 | 97 | 1014.2 |
| 20260510004026 | 72 | 315 | 0.0 | 0.0 | 0.00 | 0.25 | 0.25 | 97 | 1014.3 |
| 20260510003523 | 72 | 333 | 0.0 | 0.9 | 0.00 | 0.25 | 0.25 | 97 | 1014.3 |
| 20260510003018 | 72 | 235 | 0.0 | 0.9 | 0.00 | 0.25 | 0.25 | 97 | 1014.3 |
| 20260510002514 | 72 | 246 | 0.0 | 1.7 | 0.00 | 0.25 | 0.25 | 97 | 1014.2 |
| 20260510002011 | 72 | 0 | 0.0 | 0.0 | 0.00 | 0.25 | 0.25 | 97 | 1014.2 |
| 20260510001508 | 72 | 251 | 0.0 | 0.9 | 0.00 | 0.25 | 0.25 | 97 | 1014.3 |
| 20260510001006 | 72 | 327 | 0.0 | 0.0 | 0.00 | 0.25 | 0.25 | 97 | 1013.9 |
| 20260510000501 | 72 | 6 | 0.0 | 0.9 | 0.00 | 0.25 | 0.25 | 97 | 1013.9 |
| 20260509235958 | 72 | 297 | 0.0 | 0.0 | 0.00 | 0.25 | 0.25 | 97 | 1014.1 |
| 20260509235455 | 72 | 326 | 0.0 | 0.0 | 0.00 | 0.25 | 0.25 | 97 | 1013.8 |
| 20260509234951 | 72 | 336 | 0.0 | 0.0 | 0.00 | 0.25 | 0.25 | 97 | 1013.9 |
| 20260509234448 | 72 | 239 | 0.0 | 0.9 | 0.00 | 0.25 | 0.25 | 97 | 1013.9 |
| 20260509233946 | 72 | 242 | 0.0 | 0.9 | 0.00 | 0.25 | 0.25 | 96 | 1013.9 |
| 20260509233443 | 72 | 235 | 0.0 | 0.0 | 0.02 | 0.25 | 0.25 | 96 | 1013.8 |
| 20260509232939 | 72 | 340 | 0.9 | 0.9 | 0.00 | 0.25 | 0.25 | 96 | 1013.9 |
| 20260509232437 | 72 | 230 | 0.0 | 0.9 | 0.00 | 0.25 | 0.25 | 96 | 1013.9 |
| 20260509231932 | 72 | 293 | 0.0 | 1.7 | 0.00 | 0.25 | 0.25 | 96 | 1013.6 |
| 20260509231429 | 73 | 315 | 0.0 | 0.9 | 0.00 | 0.25 | 0.25 | 96 | 1013.8 |
| 20260509230928 | 73 | 296 | 0.0 | 0.9 | 0.00 | 0.25 | 0.25 | 96 | 1013.7 |
| 20260509230424 | 73 | 322 | 0.0 | 0.0 | 0.00 | 0.25 | 0.25 | 95 | 1013.8 |
| 20260509225920 | 73 | 260 | 0.9 | 0.9 | 0.00 | 0.25 | 0.25 | 96 | 1014.0 |
| 20260509225417 | 74 | 317 | 0.0 | 1.7 | 0.00 | 0.25 | 0.25 | 96 | 1013.7 |
| 20260509224913 | 75 | 10 | 0.0 | 1.7 | 0.00 | 0.25 | 0.25 | 96 | 1013.8 |
| 20260509224414 | 75 | 322 | 0.0 | 0.0 | 0.00 | 0.25 | 0.25 | 97 | 1013.7 |
| 20260509223911 | 75 | 282 | 0.0 | 0.0 | 0.00 | 0.25 | 0.25 | 97 | 1013.7 |
| 20260509223408 | 75 | 282 | 0.0 | 0.0 | 0.00 | 0.25 | 0.25 | 97 | 1013.8 |
| 20260509222905 | 75 | 282 | 0.0 | 0.0 | 0.00 | 0.25 | 0.25 | 97 | 1013.9 |
| 20260509222400 | 75 | 282 | 0.0 | 0.0 | 0.00 | 0.25 | 0.25 | 96 | 1013.8 |
| 20260509221855 | 75 | 333 | 0.0 | 0.0 | 0.02 | 0.25 | 0.25 | 96 | 1013.7 |
| 20260509221353 | 75 | 333 | 0.0 | 0.0 | 0.02 | 0.25 | 0.25 | 96 | 1013.7 |
| 20260509220849 | 75 | 333 | 0.0 | 0.0 | 0.00 | 0.24 | 0.24 | 96 | 1013.6 |
| 20260509220345 | 75 | 242 | 0.0 | 0.0 | 0.00 | 0.24 | 0.24 | 96 | 1013.7 |
| 20260509215840 | 75 | 242 | 0.0 | 0.0 | 0.00 | 0.24 | 0.24 | 96 | 1013.7 |
| 20260509215337 | 75 | 242 | 0.0 | 0.9 | 0.00 | 0.24 | 0.24 | 96 | 1013.6 |
| 20260509214835 | 75 | 255 | 0.0 | 0.0 | 0.00 | 0.24 | 0.24 | 96 | 1013.6 |
| 20260509214332 | 75 | 60 | 0.0 | 0.0 | 0.00 | 0.24 | 0.24 | 96 | 1013.6 |
| 20260509213829 | 75 | 25 | 0.0 | 0.0 | 0.00 | 0.24 | 0.24 | 96 | 1013.6 |
| 20260509213324 | 75 | 255 | 0.0 | 0.0 | 0.00 | 0.24 | 0.24 | 96 | 1013.6 |
| 20260509212822 | 75 | 89 | 0.0 | 0.0 | 0.00 | 0.24 | 0.24 | 96 | 1013.7 |
| 20260509212320 | 75 | 25 | 0.0 | 0.0 | 0.00 | 0.24 | 0.24 | 96 | 1013.8 |
| 20260509211815 | 75 | 321 | 0.0 | 0.0 | 0.00 | 0.24 | 0.24 | 96 | 1014.0 |
| 20260509211311 | 75 | 269 | 0.0 | 0.0 | 0.00 | 0.24 | 0.24 | 95 | 1013.8 |
| 20260509210808 | 75 | 250 | 0.0 | 0.9 | 0.00 | 0.24 | 0.24 | 95 | 1013.7 |
| 20260509210306 | 75 | 252 | 0.0 | 0.9 | 0.00 | 0.24 | 0.24 | 95 | 1013.9 |
| 20260509205805 | 75 | 251 | 0.0 | 1.7 | 0.00 | 0.24 | 0.24 | 95 | 1013.6 |
| 20260509205300 | 75 | 243 | 0.0 | 0.0 | 0.00 | 0.24 | 0.24 | 94 | 1013.4 |
| 20260509204756 | 75 | 243 | 0.0 | 0.0 | 0.00 | 0.24 | 0.24 | 93 | 1013.4 |
| 20260509204252 | 76 | 315 | 0.0 | 0.0 | 0.02 | 0.24 | 0.24 | 92 | 1013.2 |
| 20260509203749 | 76 | 315 | 0.0 | 0.0 | 0.28 | 0.24 | 0.24 | 92 | 1013.5 |
| 20260509203247 | 77 | 23 | 0.0 | 0.9 | 0.57 | 0.23 | 0.23 | 91 | 1013.6 |
| 20260509202742 | 78 | 256 | 0.0 | 1.7 | 0.38 | 0.19 | 0.19 | 90 | 1013.7 |
| 20260509202238 | 78 | 245 | 0.0 | 0.9 | 0.00 | 0.13 | 0.13 | 89 | 1013.4 |
| 20260509201733 | 78 | 235 | 0.0 | 0.0 | 0.00 | 0.13 | 0.13 | 88 | 1013.3 |
| 20260509201230 | 78 | 235 | 0.0 | 1.7 | 0.00 | 0.13 | 0.13 | 88 | 1013.6 |
| 20260509200726 | 78 | 50 | 0.0 | 0.0 | 0.00 | 0.13 | 0.13 | 88 | 1013.6 |
| 20260509200221 | 79 | 50 | 0.0 | 0.0 | 0.00 | 0.13 | 0.13 | 87 | 1013.6 |
| 20260509195717 | 79 | 13 | 0.0 | 0.0 | 0.00 | 0.13 | 0.13 | 88 | 1013.3 |
| 20260509195213 | 79 | 309 | 0.0 | 0.0 | 0.00 | 0.13 | 0.13 | 88 | 1013.3 |
| 20260509194713 | 79 | 50 | 0.0 | 0.9 | 0.00 | 0.13 | 0.13 | 87 | 1013.3 |
| 20260509194210 | 79 | 75 | 0.0 | 0.0 | 0.00 | 0.13 | 0.13 | 88 | 1013.5 |
| 20260509193706 | 79 | 25 | 0.0 | 1.7 | 0.00 | 0.13 | 0.13 | 87 | 1013.2 |
| 20260509193206 | 78 | 29 | 0.0 | 1.7 | 0.00 | 0.13 | 0.13 | 87 | 1013.3 |
| 20260509192703 | 78 | 41 | 0.9 | 1.7 | 0.00 | 0.13 | 0.13 | 87 | 1013.7 |
| 20260509192158 | 78 | 62 | 0.0 | 0.0 | 0.00 | 0.13 | 0.13 | 88 | 1013.4 |
| 20260509191654 | 78 | 202 | 0.0 | 1.7 | 0.00 | 0.13 | 0.13 | 88 | 1013.2 |
| 20260509191150 | 78 | 35 | 0.9 | 1.7 | 0.00 | 0.13 | 0.13 | 87 | 1013.3 |
| 20260509190646 | 78 | 309 | 0.0 | 1.7 | 0.00 | 0.13 | 0.13 | 87 | 1012.9 |
| 20260509190144 | 78 | 322 | 0.0 | 0.9 | 0.00 | 0.13 | 0.13 | 86 | 1013.4 |
| 20260509185642 | 78 | 31 | 0.9 | 1.7 | 0.00 | 0.13 | 0.13 | 85 | 1013.4 |
| 20260509185137 | 79 | 44 | 0.0 | 0.9 | 0.00 | 0.13 | 0.13 | 85 | 1013.3 |
| 20260509184635 | 79 | 6 | 0.0 | 0.9 | 0.00 | 0.13 | 0.13 | 83 | 1013.2 |
| 20260509184132 | 80 | 61 | 0.9 | 0.9 | 0.00 | 0.13 | 0.13 | 80 | 1013.6 |
| 20260509183628 | 81 | 297 | 0.0 | 0.0 | 0.00 | 0.13 | 0.13 | 76 | 1013.7 |
| 20260509183123 | 81 | 304 | 0.0 | 0.0 | 0.00 | 0.13 | 0.13 | 78 | 1013.5 |
| 20260509182619 | 82 | 265 | 0.9 | 1.7 | 0.00 | 0.13 | 0.13 | 76 | 1013.6 |
| 20260509182117 | 82 | 266 | 0.0 | 1.7 | 0.00 | 0.13 | 0.13 | 75 | 1013.8 |
| 20260509181615 | 82 | 61 | 0.0 | 1.7 | 0.00 | 0.13 | 0.13 | 73 | 1013.7 |
| 20260509181112 | 82 | 269 | 0.0 | 0.9 | 0.00 | 0.13 | 0.13 | 77 | 1013.6 |
| 20260509180608 | 82 | 272 | 0.0 | 1.7 | 0.00 | 0.13 | 0.13 | 75 | 1013.8 |
| 20260509180105 | 83 | 269 | 0.9 | 1.7 | 0.00 | 0.13 | 0.13 | 74 | 1013.7 |
| 20260509175600 | 83 | 297 | 0.9 | 1.7 | 0.00 | 0.13 | 0.13 | 74 | 1013.8 |
| 20260509175058 | 83 | 322 | 0.0 | 1.7 | 0.00 | 0.13 | 0.13 | 74 | 1013.8 |
| 20260509174554 | 83 | 299 | 0.0 | 0.9 | 0.00 | 0.13 | 0.13 | 76 | 1013.8 |
| 20260509174049 | 82 | 266 | 0.9 | 1.7 | 0.00 | 0.13 | 0.13 | 78 | 1013.9 |
| 20260509173549 | 82 | 42 | 0.0 | 0.0 | 0.00 | 0.13 | 0.13 | 77 | 1013.9 |
| 20260509173046 | 82 | 315 | 0.0 | 0.0 | 0.00 | 0.13 | 0.13 | 77 | 1013.9 |
| 20260509172543 | 82 | 304 | 0.0 | 0.9 | 0.00 | 0.13 | 0.13 | 78 | 1013.9 |
| 20260509172039 | 82 | 37 | 0.0 | 0.9 | 0.00 | 0.13 | 0.13 | 77 | 1014.0 |
| 20260509171535 | 81 | 269 | 0.0 | 1.7 | 0.00 | 0.13 | 0.13 | 80 | 1014.0 |
| 20260509171031 | 80 | 322 | 0.0 | 0.0 | 0.00 | 0.13 | 0.13 | 80 | 1014.0 |
| 20260509170527 | 80 | 348 | 0.0 | 0.9 | 0.00 | 0.13 | 0.13 | 78 | 1014.4 |
| 20260509170023 | 81 | 261 | 1.7 | 1.7 | 0.00 | 0.13 | 0.13 | 80 | 1014.3 |
| 20260509165522 | 81 | 264 | 0.0 | 0.9 | 0.00 | 0.13 | 0.13 | 78 | 1014.2 |
| 20260509165018 | 81 | 242 | 0.0 | 1.7 | 0.00 | 0.13 | 0.13 | 80 | 1014.3 |
| 20260509164514 | 81 | 269 | 0.0 | 1.7 | 0.00 | 0.13 | 0.13 | 79 | 1014.2 |
| 20260509164009 | 81 | 263 | 0.9 | 0.9 | 0.00 | 0.13 | 0.13 | 79 | 1014.2 |
| 20260509163508 | 81 | 22 | 0.0 | 0.0 | 0.00 | 0.13 | 0.13 | 81 | 1013.9 |
| 20260509163008 | 80 | 309 | 0.0 | 0.0 | 0.00 | 0.13 | 0.13 | 82 | 1014.2 |
| 20260509162506 | 80 | 15 | 0.0 | 0.0 | 0.00 | 0.13 | 0.13 | 81 | 1014.2 |
| 20260509162001 | 80 | 333 | 0.0 | 0.0 | 0.00 | 0.13 | 0.13 | 81 | 1014.4 |
| 20260509161458 | 80 | 269 | 0.0 | 0.9 | 0.00 | 0.13 | 0.13 | 81 | 1014.6 |
| 20260509160953 | 80 | 269 | 0.0 | 1.7 | 0.00 | 0.13 | 0.13 | 80 | 1014.7 |
| 20260509160449 | 80 | 265 | 1.7 | 1.7 | 0.00 | 0.13 | 0.13 | 80 | 1014.1 |
| 20260509155944 | 80 | 233 | 0.0 | 3.5 | 0.00 | 0.13 | 0.13 | 80 | 1014.7 |
| 20260509155441 | 80 | 292 | 0.9 | 2.6 | 0.00 | 0.13 | 0.13 | 81 | 1014.5 |
| 20260509154938 | 80 | 257 | 0.0 | 0.9 | 0.00 | 0.13 | 0.13 | 80 | 1014.6 |
| 20260509154434 | 80 | 299 | 0.0 | 0.9 | 0.00 | 0.13 | 0.13 | 80 | 1014.3 |
| 20260509153931 | 80 | 322 | 0.0 | 1.7 | 0.00 | 0.13 | 0.13 | 81 | 1014.4 |
| 20260509153428 | 80 | 273 | 0.9 | 1.7 | 0.00 | 0.13 | 0.13 | 82 | 1014.4 |
| 20260509152925 | 79 | 333 | 0.0 | 0.0 | 0.00 | 0.13 | 0.13 | 82 | 1014.3 |
| 20260509152421 | 79 | 309 | 0.0 | 0.0 | 0.00 | 0.13 | 0.13 | 83 | 1014.4 |
| 20260509151918 | 79 | 333 | 0.0 | 0.0 | 0.00 | 0.13 | 0.13 | 83 | 1014.1 |
| 20260509151414 | 79 | 269 | 0.0 | 1.7 | 0.00 | 0.13 | 0.13 | 81 | 1014.3 |
| 20260509150912 | 80 | 275 | 0.9 | 1.7 | 0.00 | 0.13 | 0.13 | 83 | 1014.5 |
| 20260509150410 | 79 | 333 | 0.0 | 0.0 | 0.00 | 0.13 | 0.13 | 83 | 1014.6 |
| 20260509145908 | 79 | 261 | 0.9 | 0.9 | 0.00 | 0.13 | 0.13 | 84 | 1014.5 |
| 20260509145407 | 78 | 249 | 0.9 | 1.7 | 0.00 | 0.13 | 0.13 | 84 | 1014.5 |
| 20260509144903 | 78 | 224 | 0.0 | 2.6 | 0.00 | 0.13 | 0.13 | 85 | 1014.4 |
| 20260509144400 | 78 | 319 | 0.0 | 0.0 | 0.00 | 0.13 | 0.13 | 84 | 1014.4 |
| 20260509143857 | 78 | 35 | 0.0 | 0.9 | 0.00 | 0.13 | 0.13 | 86 | 1014.4 |
| 20260509143355 | 79 | 298 | 0.9 | 0.9 | 0.00 | 0.13 | 0.13 | 85 | 1014.3 |
| 20260509142851 | 78 | 340 | 0.9 | 0.9 | 0.00 | 0.13 | 0.13 | 86 | 1014.6 |
| 20260509142348 | 78 | 322 | 0.0 | 1.7 | 0.00 | 0.13 | 0.13 | 87 | 1014.6 |
| 20260509141843 | 78 | 293 | 0.0 | 1.7 | 0.00 | 0.13 | 0.13 | 86 | 1014.4 |
| 20260509141341 | 78 | 256 | 0.0 | 0.9 | 0.02 | 0.13 | 0.13 | 87 | 1014.4 |
| 20260509140837 | 78 | 326 | 0.0 | 0.9 | 0.02 | 0.13 | 0.13 | 86 | 1014.6 |
| 20260509140334 | 78 | 230 | 0.0 | 0.9 | 0.00 | 0.12 | 0.12 | 88 | 1014.5 |
| 20260509135832 | 78 | 255 | 0.0 | 0.9 | 0.00 | 0.12 | 0.12 | 89 | 1014.5 |
| 20260509135329 | 77 | 264 | 1.7 | 2.6 | 0.00 | 0.12 | 0.12 | 87 | 1014.4 |
| 20260509134826 | 77 | 249 | 0.9 | 1.7 | 0.00 | 0.12 | 0.12 | 87 | 1014.3 |
| 20260509134324 | 77 | 226 | 0.9 | 3.5 | 0.00 | 0.12 | 0.12 | 87 | 1014.1 |
| 20260509133820 | 77 | 267 | 1.7 | 1.7 | 0.00 | 0.12 | 0.12 | 88 | 1014.0 |
| 20260509133317 | 77 | 269 | 1.7 | 1.7 | 0.00 | 0.12 | 0.12 | 89 | 1013.9 |
| 20260509132816 | 77 | 269 | 0.0 | 1.7 | 0.00 | 0.12 | 0.12 | 89 | 1013.6 |
| 20260509132314 | 76 | 267 | 0.9 | 2.6 | 0.00 | 0.12 | 0.12 | 89 | 1013.8 |
| 20260509131810 | 76 | 295 | 0.0 | 1.7 | 0.00 | 0.12 | 0.12 | 90 | 1013.8 |
| 20260509131307 | 76 | 322 | 0.0 | 0.9 | 0.00 | 0.12 | 0.12 | 90 | 1013.8 |
| 20260509130803 | 76 | 217 | 0.0 | 0.9 | 0.00 | 0.12 | 0.12 | 91 | 1013.8 |
| 20260509130259 | 75 | 285 | 0.9 | 0.9 | 0.00 | 0.12 | 0.12 | 91 | 1013.7 |
| 20260509125756 | 75 | 330 | 0.9 | 1.7 | 0.00 | 0.12 | 0.12 | 91 | 1013.8 |
| 20260509125253 | 75 | 233 | 0.9 | 1.7 | 0.00 | 0.12 | 0.12 | 92 | 1013.8 |
| 20260509124749 | 75 | 274 | 1.7 | 1.7 | 0.00 | 0.12 | 0.12 | 94 | 1013.5 |
| 20260509124245 | 74 | 261 | 1.7 | 1.7 | 0.00 | 0.12 | 0.12 | 94 | 1013.4 |
| 20260509123744 | 74 | 282 | 0.0 | 1.7 | 0.00 | 0.12 | 0.12 | 94 | 1013.5 |
| 20260509123241 | 73 | 285 | 0.9 | 2.6 | 0.00 | 0.12 | 0.12 | 95 | 1013.6 |